Location: Oberkirch
(48.5323°N, 8.0787°E)
Time: 15:22:43
(UTC+00:00)

Tiros 1 despin weight - Pass Details

Date: 13 February 2026
Orbit: 556 x 593 km, 48.2° (Epoch: 5 March)

Event Time Altitude Azimuth Distance (km) Brightness Sun altitude
Rises 18:35:14 0° 264° (W) 2,731 ? -18.6°
Reaches altitude 10° 18:37:29 10° 264° (W) 1,837 ? -19.0°
Maximum altitude 18:41:41 86° 176° (S) 564 ? -19.7°
Enters shadow 18:42:33 55° 92° (E) 672 ? -19.8°
